Regional Weather Roundup
Issued by NWS

Home | Current Version | Previous Version | Text Only | Print | Product List | Glossary On
Versions: 1 2 3 4 5 6 7 8 9 10 11 12 13 14 15 16 17 18 19 20 21 22 23 24 25 26 27 28 29 30 31 32 33 34 35 36 37 38 39 40 41 42 43 44 45 46 47 48 49 50
000
ASUS43 KLSX 030207
RWRMO

WEATHER SUMMARY FOR MISSOURI
NATIONAL WEATHER SERVICE SPRINGFIELD MO
900 PM CDT TUE JUN 02 2015

NOTE: "FAIR" INDICATES FEW OR NO CLOUDS BELOW 12,000 FEET WITH NO
       SIGNIFICANT WEATHER AND/OR OBSTRUCTIONS TO VISIBILITY.
       CURRENT SKY AND/OR WEATHER CONDITIONS ARE NOT AVAILABLE FOR
       CHILLICOTHE AND FARMINGTON.

MOZ001>031-035>038-043-044-053-054-030300-
...NORTHERN AND WESTERN MISSOURI...

CITY           SKY/WX    TMP DP  RH WIND       PRES   REMARKS
KANSAS CTY INT MOCLDY    70  59  68 SE12      29.96F
KANSAS C DTWN  MOCLDY    72  58  61 E9        29.95S
LEE`S SUMMIT   MOCLDY    68  59  73 E7        29.97S
ST JOSEPH      CLOUDY    68  59  73 SE7       29.96S
CHILLICOTHE      N/A     69  57  65 SE5       30.00S
KIRKSVILLE     PTCLDY    62  57  83 SE7       30.02F

$$
MOZ066>068-077>081-088>096-101>105-030300-
...SOUTHWEST MISSOURI...

CITY           SKY/WX    TMP DP  RH WIND       PRES   REMARKS
SPRINGFIELD    CLEAR     67  58  72 SE7       29.99S
JOPLIN         MOCLDY    73  67  81 SE7       29.96S

$$
MOZ032>034-039>042-045>050-055>058-069>072-030300-
...CENTRAL MISSOURI...

CITY           SKY/WX    TMP DP  RH WIND       PRES   REMARKS
COLUMBIA       PTCLDY    62  57  83 E5        30.02F
JEFFERSON CITY PTCLDY    63  57  81 E5        30.02S
ROLLA          PTCLDY    58  56  93 E6        30.02F
SEDALIA        PTCLDY    66  57  72 SE8       30.00F
WHITEMAN AFB   MOCLDY    67  59  75 SE7       29.97F
WARRENSBURG    CLOUDY    68  57  68 E8        29.98R
OSAGE BEACH    CLEAR     63  55  77 E6        30.02S

$$
MOZ051-052-059>065-030300-
...EAST CENTRAL MISSOURI...

CITY           SKY/WX    TMP DP  RH WIND       PRES   REMARKS
ST LOUIS INTL  MOCLDY    67  56  67 E8        30.05S
SPIRIT OF STL  CLEAR     64  59  83 S3        30.03F
ST CHARLES     PTCLDY    66  58  75 SE8       30.03S

$$
MOZ072>076-082>087-097>100-106>115-030300-
...SOUTH CENTRAL AND SOUTHEAST MISSOURI...

CITY           SKY/WX    TMP DP  RH WIND       PRES   REMARKS
CAPE GIRARDEAU CLOUDY    63  58  83 NE6       30.06R
FARMINGTON     CLOUDY    63  57  82 E3        30.10S
POPLAR BLUFF   CLOUDY    64  57  78 CALM      30.04F
WEST PLAINS    CLEAR     62  56  80 E7        30.04F

$$


USA.gov is the U.S. government's official web portal to all federal, state and local government web resources and services.